Weather History for Richmond, KY

Change the Weather History Date:

Friday, March 22, 2013

  Actual Average (KLOZ) Record (KLOZ)
Temperature  
Mean Temperature 28 °F 49 °F  
Max Temperature 42 °F 61 °F 82 °F (2012)
Min Temperature 15 °F 38 °F 15 °F (1986)
Degree Days  
Heating Degree Days 36 16  
Month to date heating degree days 417  
Since 1 July heating degree days 3693  
Cooling Degree Days 0 0  
Month to date cooling degree days 0  
Year to date cooling degree days 0  
Moisture  
Dew Point 14 °F    
Average Humidity 54    
Maximum Humidity 93    
Minimum Humidity 29    
Precipitation  
Precipitation 0.00 in 0.13 in 1.37 in (1968)
Month to date precipitation 2.87  
Year to date precipitation 10.12  
Sea Level Pressure  
Sea Level Pressure 30.03 in    
Wind  
Wind Speed 3 mph (South)    
Max Wind Speed 7 mph    
Max Gust Speed -    
Visibility 10 miles    
Events      
T = Trace of Precipitation, MM = Missing Value Source: NWS Daily Summary

Daily Weather History Graph

Daily Weather History Graph

Search for Another Location

Airport:

Trip Planner

Search our weather history database for the weather conditions in past years. The results will help you decide how hot, cold, wet, or windy it might be!

Date:

Astronomy

Mar. 22, 2013 Rise Set
Actual Time 7:37 AM EDT 7:51 PM EDT
Civil Twilight 7:11 AM EDT 8:17 PM EDT
Nautical Twilight 6:40 AM EDT 8:48 PM EDT
Astronomical Twilight 6:09 AM EDT 9:19 PM EDT
Moon 3:22 PM EDT (3/22) 4:32 AM EDT (3/22)
Length of Visible Light 13h 06m
Length of Day
12h 13m
Waxing Gibbous, 77% of the Moon is Illuminated
Mar 22
Waxing Gibbous
Mar 27
Full
Apr 3
Last Quarter
Apr 10
New
Apr 18
First Quarter

Hourly Weather History & Observations

Time (EDT) Temp. Windchill Dew Point Humidity Pressure Visibility Wind Dir Wind Speed Gust Speed Precip Events Conditions
12:15 AM 23.0 °F 18.4 °F 12.2 °F 63% 30.03 in 10.0 mi SSE 3.5 mph - N/A   Clear
12:35 AM 24.8 °F 20.5 °F 12.2 °F 59% 30.03 in 10.0 mi SSE 3.5 mph - N/A   Clear
12:55 AM 23.0 °F 18.4 °F 14.0 °F 68% 30.02 in 10.0 mi SE 3.5 mph - N/A   Clear
1:15 AM 21.2 °F 16.4 °F 14.0 °F 74% 30.02 in 10.0 mi SE 3.5 mph - N/A   Clear
1:35 AM 23.0 °F 18.4 °F 14.0 °F 68% 30.02 in 10.0 mi SSE 3.5 mph - N/A   Clear
2:15 AM 21.2 °F 14.9 °F 14.0 °F 74% 30.02 in 10.0 mi SSE 4.6 mph - N/A   Clear
2:35 AM 21.2 °F 16.4 °F 14.0 °F 74% 30.02 in 10.0 mi SSE 3.5 mph - N/A   Clear
2:55 AM 21.2 °F 16.4 °F 14.0 °F 74% 30.02 in 10.0 mi SSE 3.5 mph - N/A   Clear
3:15 AM 19.4 °F 14.3 °F 14.0 °F 80% 30.02 in 10.0 mi SSE 3.5 mph - N/A   Clear
3:35 AM 19.4 °F 12.8 °F 14.0 °F 80% 30.02 in 10.0 mi South 4.6 mph - N/A   Clear
3:55 AM 21.2 °F 16.4 °F 14.0 °F 74% 30.02 in 10.0 mi SSW 3.5 mph - N/A   Clear
4:15 AM 19.4 °F - 14.0 °F 80% 30.02 in 10.0 mi Calm Calm - N/A   Clear
4:35 AM 19.4 °F 14.3 °F 14.0 °F 80% 30.02 in 10.0 mi SSW 3.5 mph - N/A   Clear
4:55 AM 19.4 °F 14.3 °F 12.2 °F 74% 30.02 in 10.0 mi South 3.5 mph - N/A   Clear
5:15 AM 17.6 °F - 14.0 °F 86% 30.02 in 10.0 mi Calm Calm - N/A   Clear
5:35 AM 17.6 °F - 14.0 °F 86% 30.02 in 10.0 mi Calm Calm - N/A   Clear
5:55 AM 19.4 °F - 14.0 °F 80% 30.03 in 10.0 mi Calm Calm - N/A   Clear
6:15 AM 19.4 °F - 12.2 °F 74% 30.03 in 10.0 mi Calm Calm - N/A   Clear
6:35 AM 17.6 °F - 14.0 °F 86% 30.03 in 10.0 mi Calm Calm - N/A   Clear
6:55 AM 17.6 °F - 14.0 °F 86% 30.03 in 10.0 mi Calm Calm - N/A   Clear
7:15 AM 17.6 °F - 14.0 °F 86% 30.03 in 10.0 mi Calm Calm - N/A   Clear
7:35 AM 15.8 °F 8.6 °F 14.0 °F 93% 30.05 in 10.0 mi SE 4.6 mph - N/A   Clear
7:55 AM 15.8 °F 10.2 °F 14.0 °F 93% 30.05 in 10.0 mi SE 3.5 mph - N/A   Clear
8:15 AM 17.6 °F 12.3 °F 14.0 °F 86% 30.06 in 10.0 mi ESE 3.5 mph - N/A   Clear
8:35 AM 19.4 °F 14.3 °F 15.8 °F 86% 30.07 in 10.0 mi ESE 3.5 mph - N/A   Clear
8:55 AM 21.2 °F 16.4 °F 15.8 °F 80% 30.07 in 10.0 mi ESE 3.5 mph - N/A   Clear
9:15 AM 24.8 °F - 15.8 °F 69% 30.07 in 10.0 mi Calm Calm - N/A   Clear
9:35 AM 26.6 °F - 17.6 °F 69% 30.08 in 10.0 mi Calm Calm - N/A   Clear
9:55 AM 28.4 °F 24.6 °F 15.8 °F 59% 30.08 in 10.0 mi SSE 3.5 mph - N/A   Clear
10:15 AM 30.2 °F - 15.8 °F 55% 30.08 in 10.0 mi Calm Calm - N/A   Clear
10:35 AM 32.0 °F 27.5 °F 12.2 °F 44% 30.09 in 10.0 mi SE 4.6 mph - N/A   Clear
11:15 AM 33.8 °F 28.6 °F 10.4 °F 38% 30.08 in 10.0 mi ESE 5.8 mph - N/A   Clear
11:35 AM 33.8 °F 30.8 °F 10.4 °F 38% 30.07 in 10.0 mi NE 3.5 mph - N/A   Clear
11:55 AM 35.6 °F 30.7 °F 12.2 °F 38% 30.07 in 10.0 mi East 5.8 mph - N/A   Clear
12:15 PM 35.6 °F 31.7 °F 12.2 °F 38% 30.06 in 10.0 mi SE 4.6 mph - N/A   Clear
12:35 PM 37.4 °F 32.8 °F 12.2 °F 36% 30.05 in 10.0 mi NE 5.8 mph - N/A   Clear
12:55 PM 35.6 °F 29.9 °F 12.2 °F 38% 30.05 in 10.0 mi NNE 6.9 mph - N/A   Clear
1:15 PM 39.2 °F 35.0 °F 14.0 °F 36% 30.05 in 10.0 mi East 5.8 mph - N/A   Clear
1:35 PM 37.4 °F 34.9 °F 12.2 °F 36% 30.04 in 10.0 mi South 3.5 mph - N/A   Clear
2:15 PM 41.0 °F - 12.2 °F 31% 30.03 in 10.0 mi Calm Calm - N/A   Mostly Cloudy
2:35 PM 41.0 °F 38.0 °F 12.2 °F 31% 30.02 in 10.0 mi WNW 4.6 mph - N/A   Mostly Cloudy
2:55 PM 41.0 °F 36.4 °F 12.2 °F 31% 30.01 in 10.0 mi West 6.9 mph - N/A   Scattered Clouds
3:15 PM 42.8 °F - 12.2 °F 29% 30.01 in 10.0 mi Calm Calm - N/A   Scattered Clouds
3:35 PM 41.0 °F 39.0 °F 12.2 °F 31% 30.00 in 10.0 mi NW 3.5 mph - N/A   Mostly Cloudy
3:55 PM 42.8 °F 41.1 °F 14.0 °F 31% 29.99 in 10.0 mi North 3.5 mph - N/A   Overcast
4:15 PM 41.0 °F - 12.2 °F 31% 29.99 in 10.0 mi Calm Calm - N/A   Overcast
4:35 PM 41.0 °F 38.0 °F 14.0 °F 33% 29.99 in 10.0 mi West 4.6 mph - N/A   Overcast
4:55 PM 41.0 °F 38.0 °F 14.0 °F 33% 29.98 in 10.0 mi West 4.6 mph - N/A   Overcast
5:15 PM 42.8 °F 39.3 °F 14.0 °F 31% 29.99 in 10.0 mi WSW 5.8 mph - N/A   Overcast
5:35 PM 41.0 °F 36.4 °F 14.0 °F 33% 29.99 in 10.0 mi West 6.9 mph - N/A   Overcast
5:55 PM 41.0 °F 36.4 °F 14.0 °F 33% 29.99 in 10.0 mi West 6.9 mph - N/A   Overcast
6:15 PM 41.0 °F 38.0 °F 14.0 °F 33% 29.99 in 10.0 mi West 4.6 mph - N/A   Overcast
6:35 PM 41.0 °F 38.0 °F 14.0 °F 33% 29.99 in 10.0 mi West 4.6 mph - N/A   Overcast
6:55 PM 41.0 °F 38.0 °F 14.0 °F 33% 29.99 in 10.0 mi West 4.6 mph - N/A   Overcast
7:15 PM 41.0 °F 38.0 °F 14.0 °F 33% 30.00 in 10.0 mi West 4.6 mph - N/A   Overcast
7:35 PM 39.2 °F 35.0 °F 14.0 °F 36% 30.00 in 10.0 mi WSW 5.8 mph - N/A   Overcast
7:55 PM 39.2 °F 35.0 °F 14.0 °F 36% 30.01 in 10.0 mi SW 5.8 mph - N/A   Overcast
8:15 PM 39.2 °F 35.9 °F 15.8 °F 39% 30.01 in 10.0 mi WSW 4.6 mph - N/A   Overcast
8:35 PM 37.4 °F - 15.8 °F 41% 30.01 in 10.0 mi Calm Calm - N/A   Overcast
8:55 PM 37.4 °F 34.9 °F 17.6 °F 45% 30.01 in 10.0 mi WSW 3.5 mph - N/A   Overcast
9:15 PM 37.4 °F - 15.8 °F 41% 30.01 in 10.0 mi Calm Calm - N/A   Overcast
9:35 PM 37.4 °F 34.9 °F 17.6 °F 45% 30.02 in 10.0 mi West 3.5 mph - N/A   Overcast
9:55 PM 37.4 °F - 19.4 °F 48% 30.03 in 10.0 mi Calm Calm - N/A   Overcast
10:15 PM 37.4 °F - 17.6 °F 45% 30.03 in 10.0 mi Calm Calm - N/A   Overcast
10:35 PM 37.4 °F - 15.8 °F 41% 30.02 in 10.0 mi Calm Calm - N/A   Overcast
10:55 PM 37.4 °F - 17.6 °F 45% 30.02 in 10.0 mi Calm Calm - N/A   Overcast
11:15 PM 37.4 °F - 17.6 °F 45% 30.02 in 10.0 mi Calm Calm - N/A   Overcast
11:35 PM 37.4 °F - 15.8 °F 41% 30.03 in 10.0 mi Calm Calm - N/A   Overcast